GFSSGP_925_spd_132.txt.gz
Wind_Speed
11 11 11 14 7 8 17 20 22 23 1 1 8 9 10 16 11 7 31 21 33 29 37 32 27 24 20 19 19 20 19 18 17 17 16 16 17 16 15 15 14 14 13 12 10 8 7 6 5
11 14 14 7 10 14 16 21 24 21 2 7 7 6 11 4 13 9 31 28 27 27 33 30 27 24 21 20 21 21 21 19 19 17 16 16 16 15 13 13 12 12 11 10 9 7 6 6 6
11 14 8 6 15 18 18 22 17 19 10 11 5 1 10 6 19 18 29 31 27 26 27 29 27 23 21 20 21 21 21 19 19 17 16 16 16 16 14 12 11 10 10 9 8 7 6 6 6
9 8 7 13 22 22 27 22 26 23 8 11 7 7 0 12 9 14 28 29 25 22 21 29 26 24 21 21 23 22 21 20 19 18 17 17 18 18 16 13 11 9 8 8 7 7 6 7 7
19 8 11 17 26 25 22 23 26 25 9 10 12 10 4 12 19 15 18 24 23 23 22 29 25 23 22 22 23 23 22 20 19 17 16 17 17 17 16 14 11 8 7 6 6 6 5 6 6
8 11 14 18 25 24 24 26 26 21 11 7 11 12 8 20 16 17 22 22 23 26 23 29 26 24 22 23 23 22 22 20 20 18 16 17 16 17 16 13 10 9 8 7 6 6 7 7 7
18 14 18 23 22 22 24 25 22 23 19 14 11 14 10 10 21 20 22 22 24 25 24 26 26 25 24 24 23 22 21 20 19 17 16 16 16 16 15 12 10 8 7 7 7 7 7 8 8
15 15 26 23 20 25 22 20 19 24 23 13 16 11 13 10 25 23 23 24 25 24 25 26 25 24 25 24 22 21 20 19 18 17 15 15 15 16 14 11 10 8 7 7 7 8 8 8 9
21 16 18 27 27 21 18 19 20 6 8 12 17 14 4 8 17 26 23 26 26 25 28 28 28 27 25 22 23 22 20 19 18 16 16 15 13 13 11 10 9 7 7 7 8 9 10 10 11
20 17 30 24 23 23 24 22 20 6 7 12 17 5 17 10 12 18 21 22 30 30 31 32 32 31 29 25 25 22 20 19 18 16 15 13 12 12 12 11 11 10 9 9 9 9 10 12 11
25 29 24 24 25 26 23 21 16 13 14 17 18 15 16 13 11 14 22 29 36 40 33 37 35 32 31 28 26 23 21 19 17 15 14 16 12 15 10 14 14 13 12 9 9 10 12 11 12
27 31 28 26 25 23 21 23 21 13 14 11 18 15 18 17 14 17 17 21 28 24 37 37 39 35 31 31 27 24 23 22 20 19 17 17 17 15 12 16 16 12 13 11 16 12 13 9 13
31 28 28 28 25 26 23 26 20 21 14 16 14 11 18 5 12 17 24 26 27 30 27 40 39 35 31 33 26 26 24 25 22 23 22 16 14 13 12 12 11 15 13 18 12 19 19 13 12
24 28 28 27 27 24 25 24 21 21 19 17 19 12 6 12 11 16 19 26 19 34 24 33 35 31 28 27 29 26 24 26 23 26 27 20 17 13 12 10 6 9 6 4 4 10 6 4 5
27 29 27 28 29 29 24 27 31 20 22 22 20 17 15 15 16 15 25 26 23 28 35 8 16 24 22 18 26 25 20 24 21 17 25 22 18 9 12 10 12 8 7 6 2 3 7 8 11
25 24 26 30 28 28 25 35 28 24 22 21 22 17 19 19 19 22 28 25 19 35 30 33 29 26 23 18 17 19 16 16 18 13 22 19 16 13 10 2 2 5 9 8 4 1 6 11 15
22 25 33 28 29 28 26 37 24 23 24 23 19 20 18 18 19 24 26 22 34 42 37 19 24 28 25 23 17 16 11 17 12 10 17 15 16 15 9 6 7 8 8 8 9 9 5 6 3
26 32 27 28 24 27 28 30 24 22 23 25 22 21 20 19 23 25 23 17 28 20 27 44 35 31 30 24 16 21 9 14 8 10 15 19 15 12 12 9 8 6 11 13 12 10 8 3 3
29 27 29 28 27 25 27 31 25 23 23 23 24 23 22 22 21 28 24 19 21 16 24 17 9 18 28 20 18 18 14 12 9 8 12 13 13 13 12 13 9 11 12 15 13 7 2 4 7
33 33 31 28 27 27 27 29 26 25 24 21 18 23 23 21 22 20 21 20 21 29 30 32 49 29 26 22 18 20 16 16 14 13 12 13 15 12 12 8 12 11 12 14 6 3 6 7 9
31 31 29 30 26 28 24 27 23 26 24 22 20 22 22 25 24 21 17 17 32 38 50 64 47 32 24 25 21 16 16 18 17 16 14 10 8 11 8 8 8 13 8 5 3 7 7 2 4
30 31 30 31 27 21 21 16 22 23 21 23 22 19 20 23 23 21 18 17 17 19 19 29 28 24 25 25 24 20 20 18 16 17 16 13 9 8 5 6 7 6 3 4 9 3 3 2 3
26 30 30 31 27 25 30 17 17 21 21 23 24 23 19 21 22 23 18 20 26 22 24 29 27 24 26 26 22 22 18 18 23 23 21 18 16 13 8 4 3 3 3 6 3 1 3 1 3
25 27 30 28 23 22 26 23 20 18 24 27 25 21 20 19 21 22 16 26 24 24 26 30 27 26 22 21 20 21 25 26 27 29 29 23 20 16 12 6 3 5 1 1 0 0 2 2 4
19 20 13 20 18 18 24 25 19 26 24 27 26 24 20 16 16 19 20 19 20 23 28 28 25 21 19 19 18 18 27 29 30 30 24 23 21 20 18 12 8 4 4 3 1 1 1 3 3
24 23 9 24 17 19 22 28 26 24 25 24 21 21 21 18 16 17 18 19 23 21 28 25 20 22 22 23 24 26 28 25 22 18 21 19 15 17 19 16 11 8 4 2 1 4 1 3 4
23 18 23 24 21 17 20 22 27 24 28 21 23 25 24 22 18 17 16 18 29 30 28 28 25 22 23 27 26 24 23 21 19 15 13 14 18 16 16 15 14 9 4 1 4 7 4 3 5
26 17 21 8 8 23 10 27 19 29 26 18 18 24 26 22 19 14 20 21 29 29 28 28 25 24 25 25 23 20 20 21 20 19 18 16 16 17 13 11 10 8 3 1 4 7 9 8 6
14 19 18 10 12 5 7 12 27 23 26 17 18 23 22 22 21 21 20 23 27 29 28 28 26 25 24 22 22 23 23 22 22 21 19 18 18 16 12 8 7 5 1 3 5 7 9 8 9
18 23 19 11 16 10 5 6 10 26 20 18 7 22 25 24 23 19 19 19 25 25 27 25 26 24 24 23 24 24 23 22 22 20 17 17 14 10 10 9 6 4 4 5 7 8 9 10 14

GFSSGP_925_spd_135.txt.gz
Wind_Speed
16 12 7 4 2 2 6 9 12 21 16 6 5 9 10 7 9 5 30 27 30 38 30 27 28 27 25 23 22 22 21 20 19 18 18 19 19 18 19 18 16 15 13 11 10 9 7 6 7
12 7 9 4 4 5 7 11 20 22 16 4 8 6 7 6 5 2 14 34 37 41 31 27 27 27 25 24 23 23 22 21 20 19 19 19 19 19 19 17 15 14 12 10 8 6 5 5 5
11 5 1 5 4 12 6 9 18 20 10 3 2 4 6 9 12 12 6 32 37 39 32 27 26 26 25 25 24 24 23 22 21 20 19 19 19 20 19 17 14 13 11 8 7 5 5 5 5
5 2 4 2 11 9 18 17 24 21 21 3 5 5 8 16 20 18 37 33 39 36 30 28 25 26 25 25 26 25 24 24 22 19 19 19 19 19 18 16 14 13 11 9 7 5 4 4 4
7 3 4 6 14 10 14 19 24 20 15 9 5 3 9 14 41 47 39 31 36 33 29 29 27 26 26 26 27 26 25 23 22 20 19 19 19 19 17 15 13 11 10 8 7 6 6 5 4
3 3 2 12 15 11 18 21 20 17 15 12 2 6 7 30 36 36 37 30 34 34 30 32 28 27 26 26 27 26 25 23 21 19 18 18 19 19 17 14 11 10 9 7 6 6 5 4 4
7 3 7 9 11 11 19 18 18 17 12 10 2 7 11 22 35 38 37 33 35 31 32 33 30 27 27 26 26 25 24 22 20 18 17 17 17 17 15 13 10 8 7 6 5 5 5 5 5
2 3 9 10 15 18 17 6 16 20 15 12 10 5 7 11 37 37 37 37 40 35 33 35 32 29 28 27 25 23 21 19 18 17 16 15 15 15 14 12 9 7 6 5 4 4 4 4 5
6 5 13 20 19 15 12 6 9 7 14 3 2 4 1 35 36 34 32 34 35 34 36 37 32 28 28 26 23 22 19 17 17 16 15 15 15 14 12 9 6 5 4 4 4 4 5 6 7
8 12 22 16 11 11 13 12 15 2 3 2 4 6 18 34 29 22 23 28 33 34 34 33 30 27 25 23 26 24 21 20 18 18 16 14 14 13 11 9 7 6 5 6 6 6 6 8 9
5 23 15 9 19 21 21 21 13 11 4 6 8 5 8 6 11 17 23 32 38 40 35 33 30 29 24 23 25 25 23 20 17 16 16 15 13 10 12 9 10 9 10 8 8 7 8 8 8
14 20 19 15 17 16 11 8 12 8 8 12 12 7 8 8 9 9 9 20 19 32 34 36 33 30 23 21 23 21 21 20 20 17 15 17 17 16 12 13 15 13 10 10 9 9 6 4 2
25 13 13 20 23 26 20 18 15 18 10 3 9 7 9 8 10 18 22 19 42 37 36 31 29 33 22 21 22 20 22 21 21 19 15 19 17 14 16 14 18 17 11 13 11 13 13 8 7
8 14 21 21 22 24 24 15 10 21 8 4 5 5 1 9 9 8 10 9 29 32 35 43 39 26 14 29 27 25 22 22 24 21 20 21 19 15 17 13 8 13 16 18 10 12 14 10 6
16 20 19 23 25 22 11 21 29 10 8 8 7 8 7 6 6 7 6 22 33 35 42 48 37 46 25 16 23 26 24 25 26 26 22 21 19 12 20 14 11 9 14 20 14 6 10 7 2
9 10 19 26 21 15 12 30 22 11 8 10 9 8 8 10 10 12 7 31 38 42 44 32 28 27 33 29 27 28 28 28 27 29 27 23 21 15 19 13 10 9 11 12 12 7 4 4 1
9 19 22 17 12 16 18 32 12 10 15 11 9 10 10 10 10 16 10 34 42 48 44 37 35 35 32 25 27 26 15 25 24 18 28 25 22 15 15 15 13 13 11 11 9 6 5 3 1
21 22 16 17 13 12 17 24 17 15 17 17 15 11 11 11 11 11 19 36 42 47 49 49 38 37 32 20 17 18 12 18 16 15 25 26 20 17 16 11 11 11 10 8 6 6 5 3 6
17 13 15 18 16 10 16 26 22 15 15 12 18 17 15 17 8 18 29 38 35 35 35 34 32 26 14 25 27 28 15 15 14 15 19 22 19 14 12 11 8 9 8 11 11 8 3 2 4
22 21 22 18 14 17 23 24 16 15 21 18 11 21 18 19 11 9 29 36 37 45 38 37 34 36 19 17 32 26 22 18 16 15 14 14 14 12 12 12 13 9 12 13 7 3 3 3 4
24 23 23 23 20 21 17 17 25 13 19 20 18 12 21 22 17 11 20 31 33 33 43 41 41 38 40 55 37 25 20 18 17 17 16 13 13 11 10 10 11 12 8 7 2 5 7 4 1
23 19 20 20 20 19 18 13 16 22 17 20 21 11 22 21 16 16 16 25 36 38 42 39 43 41 36 34 27 31 20 20 18 22 19 17 15 15 12 11 12 11 8 4 7 8 5 1 1
20 20 23 22 18 16 29 7 12 15 21 19 20 16 12 19 19 16 14 34 40 39 42 39 45 45 32 25 31 27 27 21 27 26 24 23 19 17 15 14 20 16 15 14 9 4 3 2 3
16 12 19 17 12 18 22 16 14 16 20 19 21 17 12 9 15 17 15 29 40 38 39 40 33 31 29 36 34 32 34 31 31 30 28 25 23 19 16 15 15 15 14 10 10 3 1 1 2
11 10 1 6 13 12 20 17 16 14 17 22 24 17 11 11 11 17 19 20 30 34 41 39 34 31 36 34 31 33 35 35 35 31 25 26 22 19 14 14 12 9 9 6 5 4 2 3 3
11 13 6 6 11 15 19 16 12 25 24 7 16 13 11 14 12 17 18 22 30 37 40 36 32 32 30 28 26 34 35 34 31 26 25 22 20 15 13 13 12 11 11 9 7 5 4 1 2
4 19 15 13 15 6 12 14 9 21 23 20 11 16 18 10 10 12 18 20 32 35 33 37 34 31 27 27 32 31 29 29 26 25 22 19 17 19 15 13 13 12 11 8 6 11 5 3 4
15 8 9 4 5 10 7 6 15 15 22 20 16 11 13 14 11 16 18 22 33 39 37 36 36 35 34 31 32 29 31 30 26 24 20 21 18 17 16 14 12 10 8 7 7 7 7 7 6
4 6 8 4 5 4 4 11 11 10 16 20 17 12 18 15 21 20 19 26 34 38 37 36 37 37 34 32 32 32 29 28 25 25 23 23 20 17 16 14 12 11 11 10 9 9 12 11 11
6 10 7 5 6 6 5 10 7 10 18 11 12 10 20 25 24 23 21 22 30 34 34 34 36 35 34 33 31 31 30 31 30 29 26 22 20 16 16 14 11 9 11 12 13 12 13 13 14

GFSSGP_925_spd_138.txt.gz
Wind_Speed
12 12 6 0 2 3 5 9 4 12 5 3 6 4 4 5 8 5 8 35 26 46 36 32 28 26 26 26 25 23 21 20 18 17 18 19 20 21 22 22 21 18 15 13 13 12 10 9 10
8 3 2 1 4 3 7 5 17 14 3 13 4 3 1 3 3 1 12 20 32 45 38 34 29 28 27 26 26 25 23 21 20 19 19 19 20 20 20 18 17 16 14 12 10 9 8 8 8
5 3 3 4 5 11 7 7 15 6 3 9 9 3 7 4 1 8 12 28 32 38 39 35 29 28 27 26 26 26 24 21 20 19 19 19 19 18 17 16 15 13 11 10 8 7 7 6 7
1 4 3 3 13 8 13 7 12 12 6 7 1 6 2 9 11 15 30 26 35 38 35 33 30 28 28 27 26 25 24 22 20 18 18 18 19 18 15 13 11 10 8 6 5 4 5 6 6
3 3 3 5 14 7 9 8 14 15 6 12 7 4 3 3 9 32 34 35 43 41 35 32 29 27 26 26 26 24 23 22 19 18 17 17 17 16 15 13 11 9 7 5 3 2 2 2 4
0 3 2 14 15 4 9 16 14 17 10 16 4 3 5 14 29 32 37 39 45 44 38 32 28 25 25 26 26 25 23 22 21 19 18 18 18 16 14 11 9 8 6 4 3 2 2 1 2
6 4 6 5 5 6 18 11 9 12 7 16 6 7 3 14 24 37 39 38 43 41 39 34 29 25 25 26 26 25 24 23 20 18 18 17 17 16 13 10 8 7 5 4 4 3 3 3 3
4 4 4 6 12 12 14 4 4 4 9 19 10 8 9 20 29 29 32 34 38 38 37 34 28 26 25 26 25 24 23 21 19 17 17 16 16 16 13 11 9 7 5 5 4 4 4 4 5
3 2 7 10 11 18 7 4 2 4 8 10 7 9 18 33 30 25 25 25 29 27 32 32 27 26 25 26 25 24 22 20 18 17 17 17 17 17 15 13 10 8 6 5 4 5 5 6 7
6 7 12 8 18 6 9 5 8 7 11 12 5 4 31 35 33 27 22 24 25 25 30 32 30 25 22 21 22 23 21 20 20 19 18 16 16 16 14 12 11 9 7 6 6 5 6 7 7
7 18 19 9 13 12 14 16 6 5 6 8 9 6 27 27 24 23 26 36 38 41 39 35 29 26 25 21 19 21 19 20 19 17 16 16 15 15 13 12 11 11 10 9 8 6 7 8 9
7 14 17 3 8 6 9 8 4 6 11 11 10 8 23 28 23 21 20 24 29 27 26 27 27 24 20 20 22 22 20 20 19 17 16 16 16 14 16 13 11 11 10 8 8 7 6 6 7
13 4 7 16 16 18 17 21 19 22 14 12 12 9 10 14 18 25 30 36 37 38 37 33 26 23 20 20 22 21 20 19 18 18 19 20 20 18 15 14 13 14 12 9 9 8 9 8 7
4 6 17 16 16 8 16 19 5 23 6 9 10 9 7 10 10 12 29 35 38 45 49 42 35 35 32 28 30 27 23 20 19 19 18 21 19 17 18 18 15 14 15 12 9 7 13 15 10
12 15 15 19 15 15 11 19 29 26 5 10 12 9 7 6 8 11 32 37 42 47 40 43 45 40 31 28 26 30 26 19 22 22 21 20 21 18 15 19 16 13 12 15 15 9 11 14 12
5 5 12 16 14 8 10 30 23 12 8 11 10 10 7 5 10 19 32 39 38 39 40 41 42 38 32 26 32 30 23 22 25 25 21 20 22 19 15 19 14 10 10 16 18 14 12 11 9
6 12 13 9 8 6 18 26 8 9 9 12 11 10 9 7 3 20 28 35 39 43 43 41 44 44 36 38 37 26 26 27 27 24 22 20 21 17 21 17 12 11 13 13 11 8 7 5 4
10 4 4 7 4 10 12 24 17 9 14 15 10 12 10 6 9 19 29 32 39 45 49 51 50 44 40 28 28 29 22 32 27 25 24 26 25 21 20 14 11 11 10 8 8 7 4 2 5
11 12 9 9 7 8 9 21 13 11 9 15 15 11 11 8 9 20 31 35 34 34 40 45 49 45 41 34 36 32 29 29 23 24 24 29 25 23 17 13 12 10 8 9 9 7 1 3 3
8 13 17 16 13 7 13 22 12 9 9 13 16 16 15 9 9 13 25 34 41 43 40 37 39 43 43 37 38 32 29 24 22 19 16 20 21 17 14 15 14 12 11 11 8 2 1 2 3
15 14 17 15 16 20 11 18 18 6 12 12 15 15 13 12 14 15 18 29 36 37 42 43 46 46 41 37 33 22 19 19 23 22 23 20 19 18 15 12 11 12 11 12 6 3 5 5 1
12 8 16 15 8 12 5 9 16 4 10 12 18 16 20 13 16 19 19 21 32 38 44 40 47 47 43 39 33 28 22 16 20 26 23 20 17 14 9 8 11 11 11 10 6 9 7 4 2
16 10 16 10 13 15 17 3 17 7 9 12 17 22 21 14 19 19 21 30 38 38 39 45 43 46 44 37 31 28 22 22 23 22 23 20 15 11 10 10 11 10 7 11 11 7 3 2 2
11 3 9 3 8 12 18 7 17 14 18 16 15 22 22 12 18 21 25 35 33 33 35 38 44 41 35 38 28 25 27 28 30 27 24 20 18 14 12 11 13 12 11 10 5 3 1 1 1
5 5 2 5 9 11 14 9 21 8 14 20 17 20 12 17 19 19 20 18 27 29 31 32 34 33 27 26 30 29 34 34 36 32 27 24 21 17 15 15 14 12 7 5 3 3 3 3 3
9 11 6 10 13 14 19 9 15 20 26 14 7 18 12 15 19 21 21 21 29 34 31 30 34 30 28 30 31 32 31 31 30 28 28 27 24 20 17 14 10 8 8 7 3 3 4 2 3
3 8 13 8 6 3 4 7 19 20 19 12 18 16 10 10 16 22 21 21 31 35 34 32 32 31 33 32 31 29 29 29 28 26 28 25 21 19 17 14 13 11 10 6 7 8 7 5 4
6 3 3 3 4 9 6 7 8 26 23 10 12 11 11 2 18 20 21 23 32 34 34 29 27 29 31 29 28 27 27 26 24 25 24 21 22 20 17 16 15 12 9 7 7 10 11 10 10
6 3 3 4 5 4 3 5 17 15 2 4 9 11 8 11 17 20 19 24 37 38 35 33 34 36 34 35 34 32 30 29 27 25 24 23 22 20 17 15 16 13 10 10 8 9 9 8 8
3 5 3 7 5 4 2 9 4 3 3 6 11 16 5 13 17 21 22 22 31 33 34 32 34 34 36 37 38 35 31 29 26 27 24 24 23 20 20 17 16 16 14 12 10 10 10 10 11

GFSSGP_925_spd_141.txt.gz
Wind_Speed
5 5 3 2 2 4 5 8 3 4 7 1 6 3 8 3 9 6 6 23 37 43 40 35 32 29 28 26 24 23 22 20 20 20 20 21 22 22 23 22 20 17 14 12 12 11 9 8 8
3 1 2 2 4 3 7 5 15 7 8 10 7 6 5 6 3 3 14 16 32 43 38 36 34 31 28 27 25 23 22 22 21 21 22 22 23 24 23 21 18 15 13 12 11 9 8 8 8
4 4 3 4 5 10 10 8 2 4 8 3 7 3 3 5 1 10 5 23 36 39 38 35 32 31 29 27 25 24 23 22 21 20 21 22 22 21 20 19 16 14 11 9 8 7 7 8 8
5 4 3 3 13 10 10 2 5 4 5 5 2 8 4 0 2 11 28 30 40 38 37 34 32 30 28 28 26 24 23 22 20 19 19 21 21 20 18 15 13 11 9 8 7 6 6 6 7
4 3 2 5 12 7 5 7 3 3 5 2 4 7 5 4 8 25 35 34 45 39 36 34 32 30 28 27 26 24 23 21 19 19 19 20 19 17 16 15 13 10 8 6 4 4 5 5 6
3 3 1 12 21 2 7 13 6 6 5 7 6 5 6 8 21 25 28 39 49 44 37 33 31 29 28 27 26 24 23 21 20 19 19 19 18 16 14 13 10 8 6 5 5 4 4 5 5
6 4 6 4 5 6 15 8 7 4 4 9 5 4 4 1 17 22 23 21 36 39 38 34 32 29 28 26 25 24 22 21 19 18 18 18 17 15 14 11 9 7 6 4 4 3 3 3 3
5 4 4 6 12 10 7 6 4 9 8 3 8 6 8 5 22 24 25 23 27 35 34 30 28 28 28 26 24 22 21 19 17 16 16 16 16 15 13 11 9 8 6 6 5 5 5 4 4
5 3 6 8 9 14 2 4 3 2 5 3 5 4 13 33 28 26 25 24 26 24 27 30 25 26 26 24 22 21 19 18 16 16 15 16 16 15 14 12 11 10 9 8 7 6 6 6 5
5 6 12 7 17 4 5 4 2 4 6 6 7 10 18 34 30 23 21 22 25 25 28 28 25 26 22 20 20 20 19 18 18 17 17 16 16 16 14 12 10 8 7 6 6 6 6 7 7
6 15 15 5 7 8 4 7 4 3 9 9 6 9 2 23 21 19 22 29 28 31 29 32 31 25 23 22 24 22 20 21 19 17 16 16 15 15 13 11 11 10 8 7 7 6 7 8 9
6 11 19 5 14 6 4 5 3 9 13 6 6 1 4 13 19 17 19 25 30 31 31 37 35 33 29 28 27 25 24 23 21 20 18 18 17 16 15 14 13 12 10 7 8 6 7 7 6
7 3 7 19 11 8 9 14 7 18 11 13 14 6 11 19 19 20 23 23 30 31 33 34 38 38 37 33 31 30 27 24 21 20 18 18 17 16 16 15 14 12 10 8 7 7 8 8 7
4 10 19 14 9 5 14 18 6 27 11 12 8 9 7 18 18 16 21 23 29 31 37 44 41 39 37 35 34 31 26 26 25 23 19 19 19 17 16 15 15 13 13 12 10 9 11 12 11
8 11 12 13 4 8 6 18 30 16 15 16 13 8 6 10 8 16 33 34 38 38 41 44 43 41 40 37 33 31 29 27 25 21 19 21 21 21 18 15 15 14 14 13 13 10 10 8 10
3 3 4 9 11 8 12 27 16 12 10 12 14 8 7 8 17 22 31 35 33 32 41 44 41 41 39 36 36 34 31 27 25 23 23 22 23 23 20 14 15 16 14 14 14 10 10 8 9
4 5 7 6 4 7 16 21 4 8 9 11 11 8 7 7 5 19 30 33 37 40 42 42 41 43 39 36 34 30 29 28 24 25 26 23 25 24 19 16 15 14 11 12 13 12 8 8 8
5 4 2 4 2 6 13 23 12 10 7 12 9 10 7 10 10 20 30 31 34 40 46 46 42 42 37 32 31 30 29 28 27 27 29 26 26 23 19 15 16 13 11 13 13 10 7 6 5
10 12 7 5 9 9 6 14 9 7 11 11 9 8 7 10 8 16 24 30 32 28 35 39 36 40 39 32 31 33 28 28 26 30 29 28 27 22 18 19 16 13 14 12 10 8 4 2 4
9 10 13 5 6 6 9 17 9 4 9 10 14 9 10 7 7 13 19 24 31 38 41 38 39 42 47 35 32 25 28 29 28 29 27 28 27 22 21 18 16 11 10 10 10 8 4 2 5
9 13 8 6 7 15 9 18 14 6 10 8 8 7 9 14 14 15 19 26 31 33 38 43 44 47 43 35 29 21 28 18 23 24 25 26 26 24 20 15 11 9 9 10 8 4 3 5 4
6 4 1 5 5 5 1 7 12 6 10 8 10 7 10 13 10 15 19 21 30 35 40 44 47 46 41 33 30 34 28 17 17 25 25 27 24 18 13 9 8 9 9 8 4 3 5 4 4
9 7 6 4 7 3 6 4 5 8 7 11 10 9 8 9 15 17 19 27 36 36 36 38 42 37 35 37 34 37 27 22 23 25 26 20 17 13 9 8 10 10 8 5 6 5 3 2 2
5 5 2 4 3 8 7 7 17 11 11 8 7 8 5 8 11 17 24 31 31 32 31 31 35 35 36 41 33 33 34 29 27 27 24 22 18 14 11 11 9 8 9 8 5 3 3 2 4
4 6 2 2 4 10 9 9 21 3 5 12 11 7 2 9 13 16 18 17 23 28 31 29 31 28 33 36 31 32 31 31 33 31 28 24 19 16 13 12 13 12 8 5 3 3 3 4 5
7 8 4 6 5 11 9 8 16 13 16 18 18 17 5 8 12 17 19 20 26 31 33 32 31 27 30 35 28 28 28 26 28 28 26 23 21 19 17 15 12 11 8 6 4 4 4 2 4
4 5 9 4 5 3 4 3 23 22 16 14 18 11 7 10 9 14 16 20 29 32 35 37 32 27 28 32 26 28 26 26 26 27 25 24 22 21 16 13 13 13 11 9 9 8 7 3 4
12 4 2 3 5 7 5 4 11 5 19 22 14 7 6 8 10 10 17 21 31 36 35 30 31 33 31 28 30 28 27 25 26 26 26 25 22 20 18 18 17 14 12 10 8 10 9 6 6
2 4 6 4 5 5 3 5 18 18 9 11 15 5 8 8 11 13 15 18 29 32 31 29 30 29 28 30 30 32 30 28 28 29 26 25 23 22 22 19 17 15 13 11 9 8 7 7 7
3 3 2 3 5 5 3 12 5 3 6 5 6 6 8 8 11 7 15 15 23 28 32 31 31 31 29 32 33 33 34 34 35 31 29 27 25 23 22 19 17 14 13 11 9 8 9 10 11

GFSSGP_925_spd_144.txt.gz
Wind_Speed
4 2 1 3 2 4 5 8 3 4 3 3 3 4 7 4 5 6 7 23 34 41 37 35 34 32 31 29 26 23 23 22 23 24 24 24 23 24 26 25 22 18 16 13 12 10 9 9 8
7 6 4 2 4 2 7 6 13 8 3 8 6 1 3 3 2 5 10 14 36 44 38 35 33 31 30 29 27 24 22 22 22 23 23 24 24 25 25 23 19 15 14 13 12 10 9 9 9
7 5 4 5 5 9 10 6 5 5 6 2 7 2 2 2 2 9 6 22 36 41 38 36 33 31 30 29 28 26 23 22 22 22 23 24 25 25 23 20 17 14 13 12 10 8 8 7 6
6 4 4 4 10 13 6 4 4 3 4 2 3 7 6 0 6 12 24 31 36 38 36 36 34 32 30 29 28 27 24 22 21 22 22 23 23 22 20 18 15 13 11 10 9 8 8 8 8
3 3 2 4 10 9 4 3 3 5 1 3 4 6 7 4 7 21 29 31 40 39 37 35 34 33 31 29 27 26 24 22 21 21 21 22 21 20 18 17 15 13 11 10 9 9 9 8 8
2 3 2 11 17 2 6 9 3 4 5 4 5 3 5 3 14 23 29 31 40 41 37 35 33 31 30 29 27 26 24 23 22 21 21 21 19 18 16 15 13 12 10 8 8 8 8 8 7
6 4 7 5 6 6 8 7 6 6 6 7 5 4 4 4 12 24 27 28 33 38 33 31 32 31 30 28 27 26 24 23 21 20 20 20 19 17 16 14 12 10 9 7 6 6 5 4 4
5 4 5 7 11 14 3 6 4 10 10 4 6 7 6 2 21 25 23 27 30 28 26 25 29 31 30 29 27 26 24 22 20 20 20 19 17 15 14 12 10 8 7 5 4 3 1 1 1
4 3 9 10 10 8 1 5 0 2 3 2 4 3 5 20 28 28 23 22 24 24 25 27 29 29 32 30 28 26 24 21 19 19 18 19 18 16 14 11 9 7 5 3 2 1 1 2 3
6 5 12 6 12 5 3 1 2 2 1 3 5 5 7 24 26 24 21 23 27 27 26 31 27 30 33 31 29 27 25 22 20 19 18 18 17 15 13 10 8 6 5 3 2 1 1 3 4
7 16 13 3 8 4 6 4 5 5 7 6 7 3 7 10 12 17 24 28 28 29 27 32 33 35 35 30 32 29 27 24 20 19 17 16 16 15 14 11 9 8 6 5 3 3 2 3 4
6 10 18 2 11 4 4 3 6 10 11 6 7 5 4 10 11 11 19 26 31 30 28 34 37 36 35 33 32 33 31 28 25 20 18 17 16 14 13 13 11 9 6 4 4 3 3 3 4
7 3 5 15 17 10 7 11 9 16 6 8 8 10 11 9 15 18 14 21 28 29 28 34 37 36 34 33 33 34 31 30 27 25 23 21 17 16 16 14 11 9 7 5 3 4 4 5 6
3 4 11 13 6 4 14 19 8 23 6 11 8 11 13 9 16 18 22 23 31 30 31 37 37 34 35 34 36 36 32 30 29 27 24 21 20 17 16 15 13 10 8 8 7 7 7 8 8
9 16 16 8 3 7 4 17 26 14 10 10 12 9 11 9 13 19 30 31 38 37 34 33 32 31 36 37 37 36 33 31 30 27 25 24 22 20 16 14 12 10 8 8 9 9 9 6 4
8 4 4 4 11 7 11 27 8 12 10 13 10 9 10 6 16 22 29 27 27 29 38 33 33 35 38 37 36 35 34 32 30 27 26 25 23 21 18 13 11 10 10 11 10 9 7 4 2
3 5 4 6 6 6 14 12 5 9 9 11 10 10 10 8 7 15 27 33 34 36 34 36 38 41 39 35 34 33 32 30 28 28 27 25 23 20 17 14 11 9 11 11 11 9 6 3 4
4 5 4 3 5 6 9 21 8 12 4 8 8 8 8 9 11 18 23 27 30 32 32 33 39 38 38 35 32 28 27 28 27 27 25 22 21 20 16 13 13 9 10 10 9 7 2 3 4
11 15 12 7 9 6 7 7 8 9 12 8 9 8 9 9 6 15 20 25 29 32 34 37 37 38 38 36 33 30 32 29 28 25 23 23 21 17 16 14 12 11 9 8 7 4 1 2 5
11 11 13 6 10 5 8 14 13 10 11 6 8 9 10 6 5 7 17 22 26 36 38 38 39 40 40 37 33 25 30 26 26 23 20 19 18 15 15 16 15 10 7 7 4 3 3 4 7
8 9 5 9 7 11 7 18 14 12 7 6 9 9 7 11 11 10 11 21 24 26 33 39 43 43 38 36 34 21 24 19 22 20 19 19 16 17 18 18 13 8 8 6 5 3 3 5 7
13 9 11 7 2 5 1 6 5 4 9 9 10 9 10 9 9 11 15 13 24 29 34 34 33 38 39 35 36 31 26 17 16 23 19 16 19 21 19 14 11 9 8 8 6 5 7 7 5
10 8 8 7 5 3 4 3 7 7 8 9 8 8 9 6 12 15 15 22 29 31 33 35 33 35 37 36 38 34 25 24 20 19 20 19 16 19 15 13 12 11 11 8 7 8 7 6 4
5 2 4 2 4 7 6 6 5 8 7 3 5 1 5 7 9 14 20 25 26 27 27 28 30 32 36 35 37 36 29 27 22 21 23 24 22 18 16 14 14 12 12 12 10 7 7 8 8
2 5 1 3 4 8 11 10 17 8 7 4 4 2 7 7 6 9 14 15 20 22 26 28 29 30 34 34 34 30 30 31 26 27 30 30 26 21 19 17 18 17 14 11 8 7 9 9 8
6 7 5 6 4 4 12 9 14 20 20 20 16 8 7 8 6 8 12 15 23 28 28 28 29 29 34 34 29 27 29 28 26 25 28 26 24 22 23 23 20 16 12 10 8 9 9 7 7
2 6 7 2 3 2 4 6 15 16 18 15 8 8 8 8 7 9 11 14 21 26 31 34 32 27 31 30 29 27 26 26 23 24 25 26 25 26 25 23 20 16 15 13 11 11 10 8 8
14 5 3 3 3 6 5 6 12 7 15 18 15 8 8 8 8 7 10 15 25 29 31 29 29 28 33 29 26 27 26 25 26 30 29 28 26 25 25 23 20 19 17 14 12 12 10 7 7
3 3 3 2 4 5 2 7 12 9 6 8 8 8 10 10 9 7 7 14 22 24 25 24 29 28 31 29 27 29 30 31 34 30 32 28 31 27 27 25 23 20 17 13 11 9 7 6 8
3 4 7 5 3 4 3 9 4 3 5 7 6 7 7 8 9 7 7 10 16 22 24 28 29 29 30 32 28 32 33 36 40 39 38 34 31 28 27 24 22 19 16 12 9 8 10 11 13

GFSSGP_925_spd_147.txt.gz
Wind_Speed
5 5 3 2 3 2 6 7 2 7 4 3 3 4 7 10 5 2 1 15 25 32 31 34 35 33 33 32 30 29 28 28 27 26 25 24 23 25 27 25 22 18 15 13 13 12 11 10 9
8 6 2 2 4 7 10 9 17 13 4 5 4 4 4 4 5 4 11 13 27 30 33 30 36 34 33 30 29 28 27 28 28 26 24 23 23 24 25 23 20 17 14 13 12 11 10 10 10
9 4 3 4 5 13 12 8 11 11 11 4 5 3 4 2 1 5 8 23 29 29 29 31 36 34 32 29 28 27 27 27 27 25 23 23 24 25 24 20 17 15 13 13 11 9 9 9 9
5 3 2 7 17 19 16 1 1 5 2 2 3 8 4 2 1 6 22 27 30 28 28 34 35 33 31 29 27 26 26 25 25 24 24 25 25 25 22 19 16 15 14 11 10 9 9 8 8
2 1 5 9 22 19 9 5 1 1 2 4 4 4 5 2 1 14 26 29 35 30 27 33 35 33 31 29 27 26 25 25 24 25 25 26 26 24 22 18 16 13 12 10 9 7 7 6 6
5 1 7 18 24 23 12 12 7 6 7 7 5 5 4 4 8 15 21 28 33 32 29 29 35 33 31 30 28 27 25 24 24 24 25 25 24 22 20 17 15 12 10 9 7 7 6 5 4
7 5 17 20 20 23 17 9 10 11 16 16 7 6 4 2 6 15 19 24 28 29 29 28 30 33 31 30 29 28 26 24 24 24 24 23 22 19 17 15 13 11 9 7 6 6 5 4 4
5 4 16 15 17 30 10 5 6 13 16 9 7 8 9 1 13 16 18 22 26 27 27 27 27 28 29 30 30 28 27 25 24 23 23 22 19 17 16 14 11 9 7 6 6 5 4 4 3
4 9 18 26 21 17 3 4 3 1 7 5 8 6 6 5 18 20 20 23 26 25 26 26 26 25 26 25 28 29 27 26 24 23 22 21 16 15 15 13 11 9 7 6 5 4 4 3 2
12 14 24 12 17 16 11 15 13 6 7 8 8 4 4 12 18 21 25 25 30 30 29 28 27 27 26 25 25 24 24 23 23 22 23 18 16 15 13 11 10 8 7 5 3 3 2 2 1
11 23 19 14 17 17 19 16 11 12 14 11 12 4 4 9 14 16 19 26 33 30 28 29 29 28 28 26 26 24 22 21 21 23 22 18 16 14 12 9 6 6 5 4 3 2 2 2 1
14 18 20 18 17 15 15 16 18 19 21 11 12 5 5 8 11 15 18 21 28 32 28 29 27 30 27 25 25 23 22 21 21 21 24 22 19 18 16 12 8 6 5 4 3 2 3 1 1
20 17 15 12 16 24 17 21 20 23 9 13 11 10 11 11 13 16 21 22 25 29 27 28 30 29 28 26 24 23 22 23 21 22 22 20 18 17 15 12 11 8 5 4 3 3 2 2 2
11 16 17 15 24 21 14 20 21 29 19 19 20 22 21 20 18 18 23 28 30 30 30 30 30 29 28 26 25 24 23 22 21 21 21 23 20 21 18 15 12 10 6 4 3 3 3 3 4
11 17 18 21 18 16 17 26 34 19 18 16 16 15 17 16 15 17 31 32 34 35 30 31 31 30 29 26 26 25 22 20 21 22 21 22 21 19 15 16 15 11 6 4 5 5 4 0 1
8 11 13 6 17 19 12 31 30 17 18 23 24 22 20 19 16 20 28 33 33 31 31 30 31 30 29 27 25 23 20 19 19 18 21 21 20 17 14 13 12 9 6 6 4 6 2 1 1
12 15 15 12 13 11 23 22 12 14 13 16 18 19 21 18 14 19 28 32 35 35 33 32 32 31 31 26 24 21 19 19 18 18 17 19 19 19 15 13 9 6 6 5 7 4 2 1 3
18 17 17 13 4 8 14 21 18 16 12 10 13 13 16 17 17 19 28 29 32 33 32 32 30 30 31 24 21 19 18 18 18 16 15 19 20 18 16 12 9 6 6 6 4 3 2 2 2
20 21 24 17 18 15 20 17 14 12 14 11 14 13 12 14 12 12 25 29 30 30 33 34 33 31 30 28 26 23 22 19 18 16 17 18 19 19 17 13 9 7 7 6 6 4 2 3 5
20 23 21 23 19 17 20 23 16 18 17 14 13 15 14 14 12 10 21 27 32 34 33 33 33 32 33 28 24 19 21 17 17 16 17 16 16 17 17 14 10 9 8 6 4 4 3 4 5
21 22 20 22 18 19 19 26 24 23 16 15 18 17 16 15 15 11 16 26 29 30 34 35 36 34 33 27 24 16 17 13 15 17 15 16 16 17 17 14 12 9 6 6 6 5 4 4 4
20 17 22 20 18 18 17 20 19 8 10 17 20 19 17 14 12 12 15 19 29 32 33 32 32 31 30 28 27 25 24 19 16 18 17 17 17 15 15 13 9 9 8 9 7 5 5 6 4
17 17 19 21 21 20 18 12 17 14 15 18 16 21 17 10 11 14 16 21 28 29 32 30 28 28 30 29 29 25 22 19 18 21 21 21 19 16 12 9 7 8 10 10 8 7 7 6 3
14 11 10 7 10 11 19 16 17 18 19 13 12 14 14 11 12 13 16 20 19 23 24 28 29 28 29 28 28 26 24 20 21 23 22 20 23 21 15 9 13 13 13 12 11 9 8 8 6
7 9 7 8 9 11 14 14 19 5 16 15 6 7 7 5 6 10 13 14 18 22 25 27 29 29 31 29 27 26 22 19 23 26 26 26 24 23 17 18 18 15 14 15 12 10 9 9 7
11 14 9 9 12 14 12 12 16 21 25 14 11 8 12 10 3 7 11 14 18 22 25 28 30 30 31 29 25 23 21 21 22 24 25 26 24 23 23 18 20 17 15 15 13 11 9 8 8
4 12 17 16 18 10 8 14 21 19 19 19 20 14 14 13 9 8 9 12 17 21 25 28 29 26 29 28 25 25 25 26 29 29 27 33 30 27 20 15 18 16 15 15 13 12 11 8 7
18 4 4 5 5 9 11 16 13 8 20 22 21 20 18 16 13 8 8 12 18 21 24 25 24 23 27 28 28 31 33 34 30 29 33 33 30 25 23 19 16 20 18 16 14 13 10 7 7
4 3 7 4 4 5 9 7 7 12 12 4 12 16 18 18 18 13 8 11 18 19 21 22 24 26 28 29 34 35 36 32 32 37 31 35 36 34 31 23 19 20 17 15 14 12 9 8 8
14 14 15 6 5 8 10 14 9 4 6 3 11 9 11 16 17 15 8 8 15 18 21 23 25 28 30 36 37 37 36 36 37 33 35 36 38 32 28 24 20 18 16 14 11 10 10 11 10